Terug naar catalogus

DEIMOS 2

ActiefWetenschapSSO
NORAD 40013·PAYLOAD·🇪🇸 Spain

Gelanceerd Jun 19, 2014 vanaf Dombarovsky

Loading…

Volgende Passages (komende 24 uur)

TLE

VersSource: Space-Track

Epoch: Sep 14, 2026, 14:33 UTC

1 40013U 14033D   26257.60625252  .00001660  00000-0  16111-3 0  9995
2 40013  97.5676 128.8987 0002343  66.2642 293.8824 14.93926590651074

Volg DEIMOS 2 in realtime met AllMySat

Download on the App Store